Location: Unspecified
(0.0000°N, 0.0000°E)
Time: 23:35:53
(UTC+00:00)

S-56A Canister/Altair - Pass Details

Date: 06 October 2020
Orbit: 633 x 2499 km, 38.9° (Epoch: 28 October)

Event Time Altitude Azimuth Distance (km) Brightness Sun altitude
Rises 21:29:32 0° 298° (WNW) 5,071 12.1 -55.0°
Reaches altitude 10° 21:33:36 10° 292° (WNW) 3,763 11.3 -56.0°
Enters shadow 21:35:39 16° 286° (WNW) 3,112 10.8 -56.5°
Maximum altitude 21:41:56 39° 226° (SW) 1,670 - -58.1°
Drops below altitude 10° 21:47:42 10° 158° (SSE) 2,588 - -59.5°
Sets 21:50:01 0° 149° (SSE) 3,353 - -60.1°
